STARLINK-32405, 61636

Orbit data source: Space-Track

STARLINK-32405, 61636 is a payload satellite owned by SpaceX/Seattle (US) in LEO that was launched on Wed, 23 Oct 2024 UTC via an FALCON 9 launch vehicle from the Air Force Eastern Test Range (AFETR). Payload-class satellites include a variety of spacecraft equipped with specific instruments for various scientific and technological missions. These include communications satellites like Starlink; space stations such as the ISS; scientific satellites like the Hubble; Earth observation satellites from companies like Planet Labs, Umbra, and HawkEye 360; GPS; miniature CubeSats for education and research; and military/defense satellites.

Loading next visibility...
Identifier
61636, 2024-191R
Orbit
LEO
Country
Flag of USUS
Related business
Manufacturer
SpaceX/Seattle
Mission
Operational Commercial Communications
Bus & Motor
STARLINK V2M, Unknown motor
Mass
730 kg wet, ~700 kg dry
Launch date (UTC)
2024-10-23 (2 years ago)
Launch vehicle
FALCON 9
Launch site
Air Force Eastern Test Range (AFETR)
Object type
Payload
Rocket body
Debris
Shape & HBR
Box + 2 Pan, 17.7 m
Radar Cross Section
33.884 m², Large (>1 m²)

Expand to show TLE details & history
Last TLE update: 12 hours ago

TLE from 12 hours ago
0 STARLINK-32405
1 61636U 24191R   26255.18235447 -.00000828  00000-0 -20560-4 0  9990
2 61636  43.0036 185.1333 0001027 282.5423  77.5314 15.27574663106011
Epoch: 2026-09-12T04:22Z
TLE epoch observation values (Epoch: 2026-09-12T04:22:35.426Z)
Latitude
0.00001°
Longitude
128.29067°
Altitude
482.689 km
Speed
7.626 km/s
True Right ascension
12h 20m 31s
True Declination
0° 00' 00"
Sunlit
Object was in daylight at epoch
Visualization orbit readout
Latitude
Unknown
Longitude
Unknown
Altitude
Unknown
Speed
Unknown
Apparent Right ascension
Unknown
Apparent Declination
Unknown
Sunlit
N/A
Visualization observer readout
Local Sidereal Time
09:17:11
Azimuth
Unknown
Elevation
Unknown
Doppler factor
Unknown
Orbital elements
Apogee altitude
485.714 km
Perigee altitude
484.305 km
Semi-major axis
6,863.147 km
Eccentricity
0.0001
Inclination
43.0036°
RAAN
185.1333°
Arg. of periapsis
282.5423°
True anomaly
77.54289°
Mean anomaly
77.5314°
Eccentric anomaly
77.53715°
Mean motion
3.81732 °/min
Orbital period
94.31 mins
BSTAR
-0.00002056
Loading maneuver chart data...
Computing Atmospheric mass density...
Loading historical data...
Loading historical data...
Loading historical data...
Loading historical data...
Loading historical data...
Loading historical data...
Loading historical data...

Documentation

Showing up to 5 results
|